Weather History for KORE - May, 2013

Change the Weather History Date:

Monday, May 27, 2013

  Actual Average Record
Temperature  
Mean Temperature 52 °F -  
Max Temperature 70 °F 67 °F 89 °F (2011)
Min Temperature 33 °F 44 °F 32 °F (1997)
Degree Days  
Heating Degree Days 14    
Growing Degree Days 2 (Base 50)    
Moisture  
Dew Point 35 °F    
Average Humidity 67    
Maximum Humidity 100    
Minimum Humidity 22    
Precipitation  
Precipitation 0.00 in - - ()
Sea Level Pressure  
Sea Level Pressure 30.14 in    
Wind  
Wind Speed 3 mph (WNW)    
Max Wind Speed 14 mph    
Max Gust Speed 25 mph    
Visibility 7 miles    
Events Fog    
Averages and records for this station are not official NWS values.
T = Trace of Precipitation, MM = Missing Value Source: NWS Daily Summary

Daily Weather History Graph

Daily Weather History Graph

Search for Another Location

Airport or City:

Trip Planner

Search our weather history database for the weather conditions in past years. The results will help you decide how hot, cold, wet, or windy it might be!

Date:

Astronomy

May. 27, 2013 Rise Set
Actual Time 5:16 AM EDT 8:16 PM EDT
Civil Twilight 4:43 AM EDT 8:49 PM EDT
Nautical Twilight 4:00 AM EDT 9:32 PM EDT
Astronomical Twilight 3:10 AM EDT 10:23 PM EDT
Moon 10:51 PM EDT (5/27) 7:51 AM EDT (5/27)
Length of Visible Light 16h 06m
Length of Day
14h 59m
Waning Gibbous, 91% of the Moon is Illuminated
May 27
Waning Gibbous
May 31
Last Quarter
Jun 8
New
Jun 16
First Quarter
Jun 23
Full

Hourly Weather History & Observations

Time (EDT) Temp. Dew Point Humidity Pressure Visibility Wind Dir Wind Speed Gust Speed Precip Events Conditions
12:52 AM 35.1 °F 34.0 °F 96% 30.14 in 4.0 mi Calm Calm - N/A   Clear
1:43 AM 35.6 °F 33.8 °F 93% 30.12 in 7.0 mi Calm Calm - N/A   Partly Cloudy
1:52 AM 35.1 °F 33.1 °F 92% 30.13 in 10.0 mi Calm Calm - N/A   Scattered Clouds
1:59 AM 35.6 °F 33.8 °F 93% 30.12 in 3.0 mi Calm Calm - N/A   Mostly Cloudy
2:01 AM 35.6 °F 33.8 °F 93% 30.12 in 1.0 mi Calm Calm - N/A   Mostly Cloudy
2:08 AM 33.8 °F 33.8 °F 100% 30.12 in 0.2 mi Calm Calm - N/A Fog Fog
2:52 AM 34.0 °F 33.1 °F 96% 30.13 in 0.2 mi Calm Calm - N/A Fog Fog
3:52 AM 33.1 °F 33.1 °F 100% 30.13 in 0.2 mi Calm Calm - N/A Fog Fog
4:52 AM 34.0 °F 33.1 °F 96% 30.14 in 0.2 mi Calm Calm - N/A Fog Fog
5:52 AM 34.0 °F 34.0 °F 100% 30.16 in 0.2 mi Calm Calm - N/A Fog Fog
6:50 AM 35.6 °F 35.6 °F 100% 30.16 in 1.2 mi Calm Calm - N/A   Overcast
6:52 AM 36.0 °F 35.1 °F 97% 30.17 in 3.0 mi Calm Calm - N/A   Overcast
7:11 AM 37.4 °F 37.4 °F 100% 30.16 in 10.0 mi Calm Calm - N/A   Scattered Clouds
7:52 AM 46.9 °F 41.0 °F 80% 30.17 in 10.0 mi Variable 3.5 mph - N/A   Clear
8:52 AM 55.9 °F 39.0 °F 53% 30.17 in 10.0 mi West 6.9 mph - N/A   Clear
9:52 AM 60.1 °F 37.0 °F 42% 30.17 in 10.0 mi West 8.1 mph - N/A   Clear
10:52 AM 62.1 °F 35.1 °F 37% 30.15 in 10.0 mi West 11.5 mph - N/A   Clear
11:52 AM 64.9 °F 30.0 °F 27% 30.14 in 10.0 mi WNW 12.7 mph 25.3 mph N/A   Clear
12:52 PM 66.0 °F 30.0 °F 26% 30.13 in 10.0 mi WNW 13.8 mph 23.0 mph N/A   Clear
1:08 PM 66.2 °F 30.2 °F 26% 30.11 in 10.0 mi NW 11.5 mph 23.0 mph N/A   Clear
1:52 PM 68.0 °F 28.0 °F 22% 30.12 in 10.0 mi NNW 12.7 mph 24.2 mph N/A   Clear
2:52 PM 68.0 °F 32.0 °F 26% 30.11 in 10.0 mi WNW 13.8 mph 17.3 mph N/A   Clear
3:52 PM 69.1 °F 34.0 °F 27% 30.11 in 10.0 mi WNW 11.5 mph 16.1 mph N/A   Partly Cloudy
4:52 PM 70.0 °F 33.1 °F 26% 30.10 in 10.0 mi NW 11.5 mph 18.4 mph N/A   Clear
5:52 PM 70.0 °F 34.0 °F 27% 30.10 in 10.0 mi WNW 11.5 mph 19.6 mph N/A   Clear
6:52 PM 69.1 °F 34.0 °F 27% 30.11 in 10.0 mi West 6.9 mph - N/A   Clear
7:52 PM 62.1 °F 41.0 °F 46% 30.12 in 10.0 mi SW 4.6 mph - 0.00 in   Clear
8:52 PM 55.0 °F 45.0 °F 69% 30.14 in 10.0 mi Calm Calm - N/A   Clear
9:52 PM 51.1 °F 45.0 °F 80% 30.16 in 10.0 mi Calm Calm - N/A   Clear
10:52 PM 46.9 °F 44.1 °F 90% 30.18 in 10.0 mi Calm Calm - N/A   Clear
11:52 PM 45.0 °F 43.0 °F 93% 30.19 in 10.0 mi Calm Calm - N/A   Clear